Zurück zum Katalog

THORAD AGENA D DEB

AktivPO
NORAD 4754·DEBRIS·🇺🇸 United States

Gestartet Apr 8, 1970 von Vandenberg Space Force Base

Loading…

Nächste Überflüge

TLE

Source: Space-Track
1  4754U 70025DC  26224.90419030  .00002800  00000-0  95894-3 0  9994
2  4754  99.5897 194.8269 0014888  97.8546 262.4328 14.37110225841956

Verfolge THORAD AGENA D DEB in Echtzeit mit AllMySat

Download on the App Store